Vertical_Velocity
-4 -2 -4 -1 -1 0 -1 2 1 -0 1 4 0 0 2 7 5 16 -11 8 6 3 1 -2 0 1 -1 -3 -2 4 8 -0 -10 6 -19 -4 3 -0 -3 7 -0 0 3 3 -1
-2 -1 -0 -0 -1 0 -1 -1 -3 -0 -0 -2 -3 1 3 1 -1 -4 2 3 0 1 -4 8 2 4 1 -1 -0 3 8 -9 -4 -2 -3 -3 6 -2 9 1 -2 2 0 2 4
-0 0 0 1 -0 -0 -1 0 -1 0 1 1 0 1 2 1 -5 -1 0 2 1 1 16 6 10 -3 1 4 -1 -1 -2 -6 -13 -2 7 0 2 0 4 -2 -4 -2 1 4 2
-0 1 1 -1 -1 1 -0 0 -2 -0 1 1 -0 3 3 -1 0 0 2 5 -2 -5 4 1 3 0 2 2 0 11 -2 3 -11 -1 3 -1 0 -4 9 -23 -3 -1 1 2 1
1 1 0 -0 0 1 -1 -1 -1 -0 0 1 2 -2 -3 2 -1 5 2 2 2 -4 0 -2 1 0 1 1 -0 7 -3 2 2 2 0 5 -5 -9 -9 2 3 2 4 -2 1
0 -0 1 0 1 -0 1 0 -0 1 -0 1 1 0 -1 0 -2 1 1 2 -4 -1 -2 -1 -2 -4 -0 -0 5 2 1 -4 -5 -7 -3 14 -10 34 -24 6 -5 1 -3 -4 3
1 2 1 1 0 1 1 0 -2 -0 -2 1 -0 0 -4 1 -2 -0 -1 -1 -1 -3 -2 -2 -0 -0 1 -1 3 -2 1 -4 -4 -2 -6 9 -0 -3 -3 -4 -2 -7 -1 -2 -7
-1 0 0 -0 0 0 -0 -1 1 0 -2 3 -0 2 3 3 2 3 1 1 -1 -3 -2 -2 -2 -3 -1 -1 -4 4 6 2 -6 -0 -5 -2 -12 -7 -2 0 2 -11 -8 -1 -10
-0 1 -1 -1 -0 -0 -2 -2 -1 0 -2 -1 -2 -0 1 2 1 -1 -2 -3 7 6 3 0 -6 -1 5 2 1 2 -1 1 -10 1 -1 2 -4 -8 -6 -0 -4 -2 0 -3 -1
-1 -0 -2 -1 -1 -1 -2 -1 -2 -1 -1 -1 -0 -3 -0 -3 -3 1 4 1 -1 2 -2 -4 -1 0 1 3 -1 0 1 -2 1 -6 -2 -3 -8 -4 -4 4 -5 -6 -6 -2 -4
-1 -1 -1 -3 -2 -2 -3 -5 -3 -3 -8 0 0 1 -1 -1 -1 1 -0 -2 -2 1 -1 -0 -2 -1 -3 -2 -1 3 4 2 -7 -8 6 -1 -1 -5 -5 2 -0 -1 -3 -2 -3
-1 -1 -1 0 -3 -2 1 -9 -1 -0 -4 -1 0 -1 -1 -1 -1 -1 -2 -2 -1 -1 0 -3 -1 -3 0 1 4 1 2 -6 -6 -2 7 -2 -8 -5 -0 -5 -3 -2 -1 -3 -4
-2 -2 1 1 -1 1 -3 -4 -0 1 1 -2 -1 -2 -1 1 -1 -2 -1 -0 -1 1 0 -2 -5 0 2 -2 2 -1 2 -2 7 -4 -3 -0 -6 -2 -8 -0 1 -1 -3 4 -4
-1 -2 -3 -1 -0 -2 -2 1 0 -0 -7 -4 -1 -2 -0 -1 -3 2 -0 1 0 -1 0 -2 -3 0 0 0 4 3 -0 1 0 0 -1 -2 -7 -3 -3 -4 -1 -1 -1 -2 1
-1 0 -3 -3 -1 -1 0 1 0 -1 -8 -7 -1 1 -0 -0 1 -1 1 2 -1 -2 -3 -17 -0 -1 1 -4 1 -7 2 2 1 1 3 -1 -2 -13 0 -4 -1 -1 -0 4 9
-2 -0 -3 -0 1 -0 0 1 1 -20 -12 -1 0 -1 -5 -1 -2 -1 2 3 4 1 0 -3 -0 1 -3 -1 0 -1 -1 -2 -1 -0 -2 -1 0 -8 1 10 -1 -1 -0 1 -4
-1 -3 -6 -3 -2 -1 -0 1 -14 -10 -5 -1 -1 -1 -0 -2 -3 -1 -1 -3 -3 -4 -2 -3 -2 -2 1 0 -1 -4 -4 -4 -8 -5 -5 0 -1 -2 2 2 6 4 0 -0 -1
-3 0 -3 -2 -1 -3 0 -11 -7 -5 -1 -0 0 -1 0 0 -0 -2 -1 -1 0 -1 -1 -1 -12 -1 -2 -1 0 -0 -2 -5 -2 -1 -1 -2 -2 -0 2 2 2 3 4 1 -5
-3 -1 -3 -1 -1 -1 -1 -5 -9 -1 -1 -0 -2 -1 -1 -0 -0 -0 0 -1 -1 -2 -5 -2 -4 -3 1 0 -3 -3 1 -3 -1 -1 1 -2 -7 0 -3 -3 -3 -2 -3 -2 -1
-2 -1 -2 -2 -2 -1 -8 -3 -0 -0 -1 -0 -1 -2 -0 -1 -1 -3 -1 -4 -1 -1 -2 -2 -6 -1 -4 0 0 -3 -2 -3 -3 -1 -1 -2 -1 -5 -5 -3 -3 -5 -2 -2 0
-4 -1 0 -1 -2 -1 -4 -3 -1 -0 0 -2 -1 0 -2 -1 -1 -0 -5 -7 -0 1 -1 -2 -5 -9 -1 0 -0 -1 1 -2 -6 0 1 0 -6 -5 -2 2 2 -0 -0 1 -1
-4 -4 -1 -1 -10 0 -0 0 2 -1 1 -0 1 0 -1 -0 0 1 -2 -2 1 -2 -0 -2 -3 -1 -7 -2 0 0 -2 -2 -6 -7 -1 1 -19 -0 0 1 2 1 -1 -3 5
-1 -2 -5 -6 -3 -1 -1 -1 0 1 -1 0 0 -1 -0 -1 -1 0 -0 -4 1 1 -4 -5 -2 -3 -12 -11 -2 -0 1 -1 -1 -1 -4 2 -15 0 -3 -3 -2 0 -5 -3 -4
-0 -2 -2 -2 -1 -1 0 -2 -2 0 -1 -0 -1 0 1 1 -0 -2 -0 -2 -0 -1 1 2 0 -7 -8 -10 -4 -2 -0 -0 -3 2 -3 -9 -12 -14 -5 -1 -4 -7 -3 1 0
-1 -5 -1 -2 0 0 -0 -1 0 -2 1 1 -2 0 -2 1 0 -1 -0 -1 -2 -5 1 -1 0 1 -2 -1 0 -1 -1 -0 1 -7 1 -20 2 -8 -2 1 -1 -2 -2 -0 -2
-1 -4 0 0 0 1 1 -2 -0 -2 -2 -2 4 -2 1 1 -6 -2 2 1 -4 -2 0 1 -3 1 -2 0 1 1 -1 0 -0 -1 2 3 -10 -1 -5 -1 -1 -2 -0 -1 -3
3 2 -1 -3 1 1 -4 -4 -4 -2 -5 -2 -2 3 3 -11 -1 -5 -0 -0 -2 -3 -0 1 0 2 -3 -0 1 1 -9 -2 -0 0 -6 -1 -12 -1 -2 -1 -1 -4 -0 -3 -3
Height
1518 1515 1512 1508 1505 1502 1499 1496 1493 1490 1488 1486 1485 1483 1482 1480 1479 1477 1476 1478 1478 1476 1477 1477 1477 1478 1478 1480 1481 1481 1474 1457 1459 1463 1460 1461 1458 1454 1452 1448 1449 1446 1444 1444 1442
1514 1510 1506 1503 1500 1497 1493 1490 1487 1484 1482 1481 1479 1478 1477 1474 1474 1472 1471 1472 1474 1474 1476 1475 1476 1477 1477 1476 1478 1478 1469 1459 1461 1458 1455 1455 1454 1452 1451 1444 1442 1443 1444 1442 1439
1509 1505 1501 1497 1493 1490 1487 1483 1480 1477 1474 1472 1471 1472 1471 1471 1471 1469 1468 1468 1472 1474 1474 1474 1473 1474 1477 1474 1473 1467 1459 1457 1457 1456 1454 1450 1448 1447 1442 1434 1441 1441 1440 1440 1439
1505 1500 1496 1492 1488 1484 1481 1478 1474 1471 1469 1467 1467 1466 1467 1469 1473 1469 1469 1468 1470 1471 1471 1471 1474 1473 1472 1469 1467 1462 1457 1455 1453 1452 1451 1446 1444 1440 1436 1429 1436 1437 1438 1437 1437
1502 1497 1492 1487 1483 1479 1476 1473 1470 1467 1464 1462 1462 1461 1464 1467 1469 1467 1467 1468 1468 1468 1470 1469 1470 1472 1470 1468 1466 1458 1454 1452 1451 1448 1445 1442 1435 1431 1421 1430 1431 1431 1432 1434 1434
1499 1493 1488 1483 1478 1474 1471 1468 1466 1463 1459 1458 1458 1458 1462 1466 1466 1466 1465 1465 1465 1466 1467 1466 1467 1469 1470 1467 1467 1460 1457 1452 1448 1443 1440 1435 1429 1430 1414 1425 1427 1427 1426 1429 1429
1496 1490 1485 1479 1473 1469 1467 1465 1462 1459 1456 1455 1455 1456 1460 1464 1463 1463 1462 1462 1462 1463 1464 1464 1465 1467 1467 1465 1463 1460 1456 1450 1441 1437 1430 1426 1425 1416 1419 1420 1419 1420 1420 1421 1423
1493 1488 1481 1475 1469 1465 1463 1461 1460 1456 1455 1455 1455 1457 1459 1461 1462 1462 1461 1461 1461 1461 1462 1462 1463 1465 1466 1465 1462 1456 1454 1443 1430 1430 1431 1431 1415 1416 1416 1415 1412 1415 1415 1415 1415
1491 1485 1478 1472 1467 1463 1461 1458 1457 1456 1455 1455 1456 1458 1461 1461 1462 1461 1461 1461 1462 1460 1461 1461 1462 1463 1463 1462 1458 1455 1449 1442 1434 1433 1437 1433 1423 1417 1415 1415 1413 1410 1407 1408 1408
1489 1483 1477 1470 1465 1462 1459 1456 1456 1457 1455 1456 1457 1461 1462 1462 1460 1459 1458 1458 1460 1460 1461 1461 1462 1462 1462 1461 1455 1450 1448 1441 1438 1432 1428 1427 1416 1412 1408 1405 1405 1403 1402 1400 1401
1487 1481 1475 1469 1466 1462 1459 1456 1459 1459 1458 1461 1461 1460 1461 1461 1459 1458 1456 1457 1459 1460 1462 1462 1464 1461 1456 1454 1451 1450 1450 1443 1436 1428 1432 1422 1414 1408 1402 1401 1399 1394 1394 1394 1395
1485 1480 1475 1470 1467 1463 1460 1458 1463 1466 1464 1462 1461 1460 1460 1460 1459 1458 1458 1459 1459 1461 1462 1464 1462 1453 1452 1450 1448 1448 1447 1439 1430 1427 1429 1417 1405 1396 1394 1391 1391 1389 1388 1387 1390
1484 1479 1475 1470 1467 1465 1462 1462 1463 1464 1465 1463 1461 1461 1461 1461 1459 1458 1458 1458 1458 1460 1460 1461 1453 1451 1451 1450 1447 1444 1444 1435 1433 1424 1419 1414 1401 1391 1387 1388 1386 1386 1385 1385 1386
1483 1478 1474 1471 1469 1466 1465 1464 1463 1463 1471 1464 1462 1462 1461 1459 1459 1457 1456 1458 1457 1457 1455 1457 1450 1449 1451 1449 1447 1443 1437 1435 1431 1432 1431 1420 1422 1400 1392 1388 1386 1386 1386 1386 1385
1483 1478 1474 1469 1470 1468 1469 1465 1464 1464 1473 1464 1461 1461 1460 1461 1459 1457 1456 1455 1455 1454 1456 1453 1449 1448 1448 1445 1442 1441 1437 1435 1432 1433 1431 1420 1430 1407 1399 1394 1395 1392 1390 1389 1387
1481 1478 1475 1473 1471 1469 1466 1464 1464 1473 1480 1463 1462 1462 1461 1459 1459 1456 1455 1455 1452 1452 1453 1451 1447 1446 1445 1441 1440 1439 1439 1439 1437 1438 1447 1431 1427 1407 1402 1406 1403 1399 1397 1393 1388
1480 1477 1474 1473 1472 1469 1466 1464 1474 1477 1465 1464 1464 1464 1464 1462 1459 1457 1456 1455 1457 1463 1462 1454 1446 1444 1443 1443 1441 1442 1448 1460 1458 1453 1443 1433 1426 1414 1411 1410 1408 1404 1400 1395 1391
1478 1476 1473 1471 1469 1468 1465 1467 1481 1468 1463 1465 1464 1463 1462 1460 1459 1459 1456 1456 1452 1457 1467 1465 1455 1446 1443 1443 1444 1444 1448 1464 1459 1452 1435 1432 1424 1413 1416 1410 1408 1405 1401 1395 1391
1476 1474 1471 1469 1468 1467 1467 1484 1473 1466 1464 1463 1461 1461 1462 1460 1463 1461 1457 1457 1453 1454 1462 1476 1455 1446 1444 1444 1444 1445 1447 1449 1452 1454 1453 1440 1422 1412 1409 1406 1403 1402 1398 1395 1392
1474 1470 1469 1468 1467 1465 1468 1470 1465 1464 1464 1463 1464 1463 1471 1463 1465 1473 1464 1455 1453 1452 1453 1459 1467 1449 1445 1443 1444 1444 1446 1450 1464 1466 1454 1436 1426 1410 1412 1408 1405 1401 1398 1394 1391
1473 1469 1468 1467 1465 1465 1474 1472 1465 1463 1464 1466 1465 1465 1466 1467 1470 1470 1464 1454 1451 1453 1453 1458 1464 1454 1448 1445 1446 1447 1446 1456 1462 1461 1453 1447 1419 1409 1413 1414 1411 1406 1401 1397 1391
1473 1474 1467 1466 1468 1471 1474 1471 1468 1463 1464 1465 1465 1465 1465 1465 1468 1469 1461 1454 1450 1451 1453 1454 1464 1465 1452 1447 1448 1448 1456 1461 1466 1469 1467 1460 1428 1407 1409 1412 1411 1405 1402 1397 1392
1472 1470 1467 1466 1474 1476 1470 1470 1467 1464 1464 1464 1463 1462 1463 1466 1467 1463 1457 1450 1449 1451 1453 1453 1463 1473 1455 1453 1447 1449 1450 1459 1461 1465 1454 1455 1423 1404 1408 1409 1409 1404 1402 1395 1389
1472 1472 1468 1468 1469 1470 1470 1470 1467 1461 1461 1460 1460 1461 1463 1463 1462 1457 1455 1448 1446 1446 1445 1446 1453 1457 1451 1448 1455 1454 1457 1446 1450 1453 1443 1434 1417 1403 1409 1408 1404 1403 1399 1394 1390
1470 1468 1465 1471 1467 1468 1469 1470 1465 1463 1458 1458 1457 1456 1458 1457 1458 1454 1451 1448 1444 1443 1445 1444 1443 1449 1441 1441 1448 1444 1449 1453 1449 1435 1443 1416 1419 1407 1407 1403 1402 1400 1396 1391 1385
1464 1464 1465 1462 1462 1465 1465 1460 1459 1458 1458 1456 1454 1451 1454 1452 1448 1444 1447 1447 1445 1441 1441 1441 1433 1438 1434 1433 1435 1432 1427 1432 1435 1429 1430 1424 1416 1406 1400 1398 1397 1394 1392 1387 1383
1456 1458 1459 1456 1456 1459 1456 1450 1450 1452 1448 1446 1448 1450 1448 1443 1442 1440 1439 1439 1437 1437 1439 1436 1433 1432 1424 1428 1429 1432 1413 1413 1414 1414 1415 1420 1407 1401 1398 1396 1393 1390 1390 1387 1382